{"data":{"norad_id":57070,"intl_designator":"2023-088Y","name":"STARLINK-5828","alt_names":[],"object_type":"PAYLOAD","status":"ACTIVE","operator":null,"country":"US","launch_date":"2023-06-22","launch_site_code":"AFWTR","launch_vehicle":null,"mission":null,"orbit_class":"UNKNOWN","rcs_meters":null,"size_class":null,"mass_kg":null,"dimensions":null,"purposes":["comms"],"wikipedia_slug":null,"has_3d_model":false,"image_url":null,"decayed_at":null,"tle_current":{"epoch":"2026-05-25T00:32:52.007424Z","epoch_age_seconds":69249,"freshness":"FRESH","line1":"1 57070U 23088Y   26145.02282416  .00000178  00000+0  15986-4 0  9991","line2":"2 57070  43.0016  25.1171 0001008 231.2685 128.8077 15.27576571162174","mean_motion":15.27576571,"eccentricity":0.0001008,"inclination_deg":43.0016,"raan_deg":25.1171,"arg_perigee_deg":231.2685,"mean_anomaly_deg":128.8077,"bstar":1.5986e-5,"rev_number":16217,"period_min":94.266960317238,"perigee_km":482.36775512497,"apogee_km":483.7509723119,"semimajor_km":6861.1963637184,"source":"CELESTRAK","updated_at":"2026-05-25T13:38:18.212881Z"}}}